Location: The Saddle
(36.8333°N, 80.3417°W)
Time: 10:41:06
(UTC-04:00)

Altair - Visible Passes

Search period start: 17 July 2024 00:00
Search period end: 27 July 2024 00:00
Orbit: 1502 x 1681 km, 47.2° (Epoch: 16 July)

Date Brightness Start Highest point End Pass type
(mag) Time Alt. Az. Time Alt. Az. Time Alt. Az.
17 Jul 7.8 01:06:28 10° WNW 01:15:32 61° NNE 01:24:45 10° ESE visible
17 Jul 7.4 03:11:21 10° WNW 03:20:15 57° SW 03:29:25 10° SSE visible
17 Jul 8.7 05:19:54 10° W 05:23:33 13° WSW 05:27:15 10° SSW visible
17 Jul 8.4 22:35:24 10° WNW 22:44:07 44° N 22:52:48 10° ENE visible
18 Jul 7.8 00:41:15 10° WNW 00:50:17 58° NNE 00:59:24 10° E visible
18 Jul 7.3 02:46:07 10° WNW 02:55:06 61° SW 02:57:28 49° S visible
18 Jul 8.9 04:53:51 10° W 05:05:27 - SSW 04:55:09 12° W visible
18 Jul 8.4 22:10:02 10° WNW 22:18:47 44° N 22:27:30 10° ENE visible
19 Jul 7.9 00:16:01 10° WNW 00:25:00 55° NNE 00:33:03 14° E visible
19 Jul 7.3 02:20:53 10° WNW 02:29:57 66° SW 02:30:53 63° S visible
19 Jul 9.0 04:28:01 10° W 04:28:44 12° W 04:28:44 12° W visible
19 Jul 8.4 21:44:41 10° W 21:53:28 45° N 22:02:12 10° ENE visible
19 Jul 8.0 23:50:46 10° WNW 23:59:43 53° NNE 00:07:27 15° E visible
20 Jul 7.2 01:55:40 10° WNW 02:04:47 72° SW 02:05:21 70° SSW visible
20 Jul 9.0 04:02:21 10° W 04:03:14 12° W 04:03:14 12° W visible
20 Jul 8.4 21:19:18 10° W 21:28:09 46° N 21:36:54 10° ENE visible
20 Jul 8.0 23:25:31 10° WNW 23:34:26 51° NNE 23:42:19 14° E visible
21 Jul 7.2 01:30:27 10° WNW 01:39:36 77° SW 01:40:14 74° S visible
21 Jul 9.0 03:36:45 10° W 03:38:09 14° W 03:38:09 14° W visible
21 Jul 8.4 20:53:56 10° W 21:02:51 47° N 21:11:37 10° ENE visible
21 Jul 8.1 23:00:15 10° WNW 23:09:08 49° NNE 23:17:26 12° E visible
22 Jul 7.2 01:05:14 10° WNW 01:14:25 82° SW 01:15:22 74° SSE visible
22 Jul 8.9 03:11:15 10° WNW 03:13:18 16° W 03:13:18 16° W visible
22 Jul 8.1 22:34:58 10° WNW 22:43:50 48° NNE 22:52:39 10° E visible
23 Jul 7.2 00:40:01 10° WNW 00:49:14 87° SW 00:50:40 69° SE visible
23 Jul 8.8 02:45:47 10° WNW 02:48:37 19° W 02:48:37 19° W visible
23 Jul 8.2 22:09:42 10° WNW 22:18:32 47° N 22:27:18 10° E visible
24 Jul 7.3 00:14:49 10° WNW 00:24:03 88° NE 00:26:05 61° ESE visible
24 Jul 8.7 02:20:23 10° WNW 02:24:02 22° W 02:24:02 22° W visible
24 Jul 8.3 21:44:24 10° WNW 21:53:13 46° N 22:01:57 10° E visible
24 Jul 7.3 23:49:36 10° WNW 23:58:50 83° NNE 00:01:36 52° ESE visible
25 Jul 8.5 01:55:01 10° WNW 01:59:33 26° W 01:59:33 26° W visible
25 Jul 8.3 21:19:05 10° WNW 21:27:54 45° N 21:36:37 10° ENE visible
25 Jul 7.4 23:24:23 10° WNW 23:33:37 78° NNE 23:37:11 43° ESE visible
26 Jul 8.3 01:29:40 10° WNW 01:35:09 31° W 01:35:09 31° W visible
26 Jul 8.3 20:53:46 10° WNW 21:02:35 45° N 21:11:16 10° ENE visible
26 Jul 7.5 22:59:10 10° WNW 23:08:25 74° NNE 23:12:50 35° ESE visible
